SCP
4 5 6 5 4 3 2 1 1 0 0 0 0 0 0 0 0 0 0 0 0 0 0 0 0 0 0 0 0 0 0 0 0 0 0 0 0 0 0 0 0 0 0
5 6 5 5 5 2 0 0 0 0 0 0 0 0 0 0 0 0 0 0 0 0 0 0 0 0 0 0 0 0 0 0 0 0 0 0 0 0 0 0 0 0 0
8 6 5 4 2 0 0 0 0 0 0 0 0 0 0 0 0 0 0 0 0 0 0 0 0 0 0 0 0 0 0 0 0 0 0 0 0 0 0 0 0 0 0
6 4 3 0 0 0 0 0 0 0 0 0 0 0 0 0 0 0 0 0 0 0 0 0 0 0 0 0 0 0 0 0 0 0 0 0 0 0 0 0 0 0 0
3 0 0 0 0 0 0 0 0 0 0 0 0 0 0 0 0 0 0 0 0 0 0 0 0 0 0 0 0 0 0 0 0 0 0 0 0 0 0 0 0 0 0
0 0 0 0 0 0 0 0 0 0 0 0 0 0 0 0 0 0 0 0 0 0 0 0 0 0 0 0 0 0 0 0 0 0 0 0 0 0 0 0 0 0 0
0 0 0 0 0 0 0 0 0 0 0 0 0 0 0 0 0 0 0 0 0 0 0 0 0 0 0 0 0 0 0 0 0 0 0 0 0 0 0 0 0 0 0
0 0 0 0 0 0 0 0 0 0 0 0 0 0 0 0 0 0 0 0 0 0 0 0 0 0 0 0 0 0 0 0 0 0 0 0 0 0 0 0 0 0 0
0 0 0 0 0 0 0 0 0 0 0 0 0 0 0 0 0 0 0 0 0 0 0 0 0 0 0 0 0 0 0 0 0 0 0 0 0 0 0 0 0 0 0
0 0 0 0 0 0 0 0 0 0 0 0 0 0 0 0 0 0 0 0 0 0 0 0 0 0 0 0 0 0 0 0 0 0 0 0 0 0 0 0 0 0 0
0 0 0 0 0 0 0 0 0 0 0 0 0 0 0 0 0 0 0 0 0 0 0 0 0 0 0 0 0 0 0 0 0 0 0 0 0 0 0 0 0 0 0
0 0 0 0 0 0 0 0 0 0 0 0 0 0 0 0 0 0 0 0 0 0 0 0 0 0 0 0 0 0 0 0 0 0 0 0 0 0 0 0 0 0 0
0 0 0 0 0 0 0 0 0 0 0 0 0 0 0 0 0 0 0 0 0 0 0 0 0 0 0 0 0 0 0 0 0 0 0 0 0 0 0 0 0 0 0
0 0 0 0 0 0 0 0 0 0 0 0 0 0 0 0 0 0 0 0 0 0 0 0 0 0 0 0 0 0 0 0 0 0 0 0 0 0 0 0 0 0 0
0 0 0 0 0 0 0 0 0 0 0 0 0 0 0 0 0 0 0 0 0 0 0 0 0 0 0 0 0 0 0 0 0 0 0 0 0 0 0 0 0 0 0
0 0 0 0 0 0 0 0 0 0 0 0 0 0 0 0 0 0 0 0 0 0 0 0 0 0 0 0 0 0 0 0 0 0 0 0 0 0 0 0 0 0 0
0 0 0 0 0 0 0 0 0 0 0 0 0 0 0 0 0 0 -0 -0 0 0 0 0 0 0 0 0 0 0 0 0 0 0 0 0 0 0 0 0 0 0 0
0 0 0 0 0 0 0 0 0 0 0 0 0 0 0 0 0 0 0 0 0 0 0 0 0 0 0 0 0 0 0 0 0 0 0 0 0 0 0 0 0 0 0
0 0 0 0 0 0 0 0 0 0 0 0 0 0 0 0 0 0 0 0 0 0 0 0 0 0 0 0 0 0 0 0 0 0 0 0 0 0 0 0 0 0 0
0 0 0 0 0 0 0 0 0 0 0 0 0 0 0 0 0 0 0 0 0 0 0 0 0 0 0 0 0 0 0 0 0 0 0 0 0 0 0 0 0 0 0
0 0 0 0 0 0 0 0 0 0 0 0 0 0 0 0 0 0 0 0 0 0 0 0 0 0 0 0 0 0 0 0 0 0 0 0 0 0 0 0 0 0 0
0 0 0 0 0 0 0 0 0 0 0 0 0 0 0 0 0 0 0 0 0 0 0 0 0 0 0 0 0 0 0 0 0 0 0 0 0 0 0 0 0 0 0
0 0 0 0 0 0 0 0 0 0 0 0 0 0 0 0 0 0 0 0 0 0 0 0 0 0 0 0 0 0 0 0 0 0 0 0 0 0 0 -0 0 0 0
0 0 0 0 0 0 0 0 0 0 0 0 0 0 0 0 0 0 0 0 0 0 0 0 0 0 0 0 0 0 0 0 0 -0 -0 -0 0 0 0 -0 -0 -0 -0
0 0 0 0 0 0 0 0 0 0 0 0 0 0 0 0 0 0 0 0 0 0 0 0 0 0 0 0 0 0 0 0 0 -0 -0 -0 0 0 -0 -0 -0 -0 -0
0 0 0 0 0 0 0 0 0 0 0 0 0 0 0 0 0 0 0 0 0 0 0 0 0 0 0 0 0 0 0 0 0 0 -0 0 0 0 -0 -0 0 -0 -0
Wind_Speed_500mb
106 106 104 98 94 82 67 53 46 43 56 25 6 49 60 41 29 29 22 22 24 24 23 22 25 27 28 30 31 32 30 28 32 40 43 44 44 44 45 44 45 45 44
91 96 95 95 82 70 62 49 34 30 42 25 46 63 49 32 25 24 20 22 22 23 24 24 25 26 28 27 27 28 30 35 38 40 40 39 38 40 41 42 42 40 39
82 87 83 76 64 63 58 46 41 38 47 53 59 53 40 25 25 27 23 22 19 23 24 25 23 17 16 19 24 31 34 31 27 29 33 34 33 35 35 30 30 27 31
75 74 70 76 67 64 56 48 46 48 58 63 57 39 33 30 29 24 20 18 18 18 14 10 7 8 14 19 24 24 23 24 23 25 24 25 31 34 35 42 31 29 30
77 74 75 71 73 65 60 52 56 56 60 54 46 41 35 28 21 16 13 11 7 5 4 5 6 8 15 18 24 21 20 20 22 22 25 30 32 39 44 46 49 50 43
84 83 75 86 77 67 61 61 57 52 51 39 40 33 26 17 14 14 7 3 1 1 2 2 4 11 17 22 21 19 21 22 24 25 30 35 37 43 47 51 57 63 68
94 86 88 83 78 70 66 63 58 56 48 39 33 25 16 10 4 5 4 4 4 2 3 2 7 13 16 14 14 18 20 23 24 25 30 36 45 49 54 59 62 64 67
91 97 96 91 85 81 74 70 62 54 42 36 28 19 13 12 12 8 6 5 3 5 2 4 8 13 9 9 12 16 19 21 25 29 32 38 45 51 55 62 66 70 70
99 104 99 92 89 86 80 71 62 52 45 35 26 20 16 16 13 8 4 5 6 3 1 4 9 10 8 12 14 16 20 26 28 33 37 41 45 49 54 55 49 45 44
101 107 103 99 92 85 77 70 60 48 43 35 30 24 22 15 14 10 7 6 3 3 2 7 7 12 12 11 17 23 25 28 31 32 30 28 29 31 30 28 30 35 40
100 107 99 89 84 76 70 62 56 48 41 36 31 28 21 17 15 13 8 2 4 2 5 13 10 13 13 16 21 24 29 31 30 29 29 26 29 30 26 27 29 32 35
94 90 82 75 71 67 62 56 47 43 39 37 29 26 23 19 16 12 8 9 15 13 16 12 15 18 20 23 24 27 27 26 26 30 33 39 39 36 32 30 26 25 25
88 83 77 69 63 54 50 48 47 40 36 34 28 24 25 23 20 19 18 20 19 12 11 13 17 18 21 25 26 24 24 24 26 27 35 38 42 40 40 38 30 28 23
73 68 66 62 55 47 44 43 42 37 32 29 27 27 28 27 25 21 18 18 14 9 15 17 17 21 24 25 22 21 24 26 28 30 34 35 36 43 48 50 48 41 34
49 50 53 54 52 54 49 39 36 35 24 26 27 26 27 30 28 22 15 15 20 22 19 18 17 19 22 26 27 23 23 22 23 30 34 37 39 40 45 45 47 49 50
47 47 50 51 50 47 49 53 41 33 30 26 27 22 29 26 24 21 23 24 22 21 14 19 23 26 27 30 30 29 29 32 34 34 36 39 43 45 45 43 41 41 44
32 38 42 41 41 39 43 43 46 41 32 29 29 28 24 27 28 29 24 21 22 17 17 24 26 27 28 28 30 31 32 33 34 37 41 44 44 46 53 52 47 44 43
35 35 35 36 37 38 35 34 36 41 43 42 35 29 29 31 32 26 21 18 21 21 24 25 25 27 28 28 28 29 28 27 31 37 42 47 48 52 56 60 57 52 49
36 39 38 37 36 35 36 37 39 40 39 37 40 38 39 32 30 28 19 17 22 25 26 24 24 26 27 27 29 28 28 27 31 35 41 48 52 54 58 61 61 56 54
34 32 32 32 33 34 37 40 42 38 38 40 40 38 35 29 27 24 17 18 20 22 24 24 23 24 26 27 28 28 27 24 28 33 40 46 51 54 57 61 65 67 63
26 27 25 26 27 29 34 38 41 42 41 41 39 33 26 21 22 19 17 18 18 18 21 22 21 22 24 26 27 28 29 28 29 33 38 44 49 53 55 58 62 65 66
24 25 23 22 24 25 27 30 36 35 34 32 31 30 25 21 17 15 15 15 17 18 19 20 20 22 24 26 28 29 30 31 31 32 36 42 46 50 53 56 61 66 69
29 26 25 23 22 24 25 29 31 29 30 27 26 25 22 17 16 13 11 13 15 17 18 19 20 22 24 27 29 30 32 35 37 37 37 40 43 48 51 54 58 62 67
29 27 27 22 19 27 26 30 33 31 30 24 21 18 17 14 13 11 10 11 13 15 16 16 17 19 22 24 27 30 32 34 35 36 36 37 40 43 46 49 54 58 62
30 32 28 24 27 32 35 36 35 32 26 20 16 15 16 13 10 8 5 8 10 12 13 14 16 17 20 23 25 28 30 32 33 33 34 35 37 40 44 47 51 54 59
35 35 32 33 35 34 30 31 29 26 21 16 13 13 12 11 8 5 3 4 8 9 10 12 14 17 19 21 23 26 27 29 31 33 33 35 38 41 44 46 48 53 57
Wind_Direction_500mb
220 221 222 225 227 222 223 222 225 216 203 196 105 244 237 221 217 217 230 259 245 250 254 265 283 293 295 297 300 304 305 308 308 307 313 319 323 323 318 317 316 312 309
222 220 218 218 216 215 217 218 203 201 178 189 191 214 207 203 206 226 223 223 235 255 271 284 291 291 294 298 300 305 315 317 315 318 324 332 337 333 334 332 333 332 324
212 213 212 211 198 207 206 203 186 189 189 190 193 189 188 194 205 206 218 234 253 272 284 288 289 290 293 298 305 311 322 334 333 335 333 339 344 340 346 356 359 6 351
201 202 198 206 201 194 195 187 175 172 172 170 171 179 184 190 193 210 236 258 283 288 288 289 291 302 307 316 321 331 343 345 342 342 346 353 351 351 349 350 6 7 359
189 190 197 195 183 182 177 177 169 166 162 162 163 169 175 182 205 233 268 297 295 273 272 292 310 328 339 346 341 354 7 10 23 13 2 354 350 348 352 349 343 342 349
187 190 188 176 177 177 176 178 175 166 163 168 168 172 180 203 242 276 290 301 224 313 329 290 323 337 348 349 351 3 2 12 13 5 356 345 341 338 336 337 337 335 335
185 184 174 175 170 171 173 171 166 165 166 176 176 177 186 198 203 118 112 72 46 63 185 253 319 340 346 356 14 6 6 5 352 345 341 331 329 329 327 326 325 322 319
177 172 169 169 166 164 166 163 162 164 169 176 174 175 176 148 132 138 106 56 105 163 187 320 339 352 8 23 10 358 357 344 332 330 323 317 314 314 312 312 315 315 318
169 164 164 165 162 161 161 161 161 166 170 167 163 155 148 143 141 123 102 108 170 181 311 342 359 5 27 10 357 344 339 332 325 321 316 311 309 307 306 312 317 328 344
161 159 158 159 159 160 159 159 156 164 162 157 152 147 142 141 142 144 141 177 213 246 327 352 37 23 28 4 337 337 342 343 340 341 339 341 342 341 343 347 348 345 344
153 150 150 151 152 155 155 155 156 155 151 148 146 140 138 140 145 135 158 190 224 195 89 80 55 40 21 6 5 3 4 360 3 16 25 23 16 15 11 6 356 348 345
140 141 143 145 147 150 152 149 146 148 149 144 140 134 135 139 130 132 131 130 113 106 93 73 36 27 19 12 12 10 9 19 34 32 28 24 18 14 14 8 360 359 353
137 138 140 142 142 145 146 143 143 145 146 137 132 134 137 134 136 130 119 121 112 97 84 47 39 28 14 14 13 22 32 39 39 29 27 25 16 13 9 11 10 11 28
126 130 132 134 136 138 139 140 139 143 139 130 133 137 137 136 136 129 126 116 108 100 78 65 43 28 26 30 29 34 38 40 31 23 22 18 14 17 16 12 10 6 7
119 130 137 134 137 136 132 135 137 128 124 132 131 131 137 138 134 135 130 118 108 93 73 61 55 52 49 47 46 44 44 41 31 24 19 14 13 12 8 3 6 4 2
139 137 136 137 139 145 148 145 141 139 135 134 129 131 137 136 131 129 125 111 96 81 75 72 63 57 52 47 44 42 39 37 33 28 22 18 14 11 6 5 7 1 0
138 141 138 139 140 154 159 157 152 148 143 137 133 135 139 132 135 132 118 105 92 74 79 71 61 53 49 43 38 37 38 37 32 29 27 26 23 20 18 14 8 6 5
137 137 136 145 153 163 161 158 159 152 146 137 133 135 136 139 135 119 100 93 84 81 74 67 58 51 45 41 38 38 39 38 33 30 29 28 28 25 22 21 18 12 7
121 123 132 142 151 158 159 157 152 147 143 140 136 135 134 133 126 112 98 88 81 75 68 60 54 49 45 39 37 33 32 35 33 31 30 28 27 26 25 21 21 21 16
113 121 122 122 131 141 146 143 140 142 142 136 137 140 134 125 114 111 103 87 78 71 63 55 48 45 43 40 38 38 37 40 35 32 29 28 26 25 24 23 22 22 20
132 125 121 119 124 127 135 138 135 138 139 137 136 137 132 119 117 111 95 83 77 69 64 53 45 43 43 41 40 39 36 35 32 30 27 24 22 22 22 22 23 24 23
146 142 139 141 135 133 132 140 145 143 145 144 137 137 132 128 123 114 97 83 70 60 59 53 44 41 41 39 38 35 34 33 32 27 25 22 19 19 19 20 21 23 23
156 148 143 140 145 150 151 158 163 151 152 145 142 137 133 137 130 119 98 76 60 51 46 45 40 35 33 33 32 31 30 28 26 23 21 19 17 16 16 17 20 21 22
169 163 155 151 162 157 157 166 162 154 152 151 146 143 142 144 133 120 98 73 54 43 42 44 39 36 31 29 27 27 28 27 24 20 17 16 16 16 16 17 19 19 20
175 173 166 166 161 157 147 146 149 150 149 151 154 160 155 152 145 139 111 66 40 31 35 38 37 33 29 27 24 24 24 22 22 21 18 15 16 16 16 15 16 18 20
184 182 178 176 173 171 163 155 153 159 161 159 156 161 160 157 163 160 116 35 29 25 28 33 30 27 26 24 23 21 18 17 17 19 17 14 13 14 14 14 15 16 18
Wind_Speed_850mb
106 106 104 98 94 82 67 53 46 43 56 25 6 49 60 41 29 29 22 22 24 24 23 22 25 27 28 30 31 32 30 28 32 40 43 44 44 44 45 44 45 45 44
91 96 95 95 82 70 62 49 34 30 42 25 46 63 49 32 25 24 20 22 22 23 24 24 25 26 28 27 27 28 30 35 38 40 40 39 38 40 41 42 42 40 39
82 87 83 76 64 63 58 46 41 38 47 53 59 53 40 25 25 27 23 22 19 23 24 25 23 17 16 19 24 31 34 31 27 29 33 34 33 35 35 30 30 27 31
75 74 70 76 67 64 56 48 46 48 58 63 57 39 33 30 29 24 20 18 18 18 14 10 7 8 14 19 24 24 23 24 23 25 24 25 31 34 35 42 31 29 30
77 74 75 71 73 65 60 52 56 56 60 54 46 41 35 28 21 16 13 11 7 5 4 5 6 8 15 18 24 21 20 20 22 22 25 30 32 39 44 46 49 50 43
84 83 75 86 77 67 61 61 57 52 51 39 40 33 26 17 14 14 7 3 1 1 2 2 4 11 17 22 21 19 21 22 24 25 30 35 37 43 47 51 57 63 68
94 86 88 83 78 70 66 63 58 56 48 39 33 25 16 10 4 5 4 4 4 2 3 2 7 13 16 14 14 18 20 23 24 25 30 36 45 49 54 59 62 64 67
91 97 96 91 85 81 74 70 62 54 42 36 28 19 13 12 12 8 6 5 3 5 2 4 8 13 9 9 12 16 19 21 25 29 32 38 45 51 55 62 66 70 70
99 104 99 92 89 86 80 71 62 52 45 35 26 20 16 16 13 8 4 5 6 3 1 4 9 10 8 12 14 16 20 26 28 33 37 41 45 49 54 55 49 45 44
101 107 103 99 92 85 77 70 60 48 43 35 30 24 22 15 14 10 7 6 3 3 2 7 7 12 12 11 17 23 25 28 31 32 30 28 29 31 30 28 30 35 40
100 107 99 89 84 76 70 62 56 48 41 36 31 28 21 17 15 13 8 2 4 2 5 13 10 13 13 16 21 24 29 31 30 29 29 26 29 30 26 27 29 32 35
94 90 82 75 71 67 62 56 47 43 39 37 29 26 23 19 16 12 8 9 15 13 16 12 15 18 20 23 24 27 27 26 26 30 33 39 39 36 32 30 26 25 25
88 83 77 69 63 54 50 48 47 40 36 34 28 24 25 23 20 19 18 20 19 12 11 13 17 18 21 25 26 24 24 24 26 27 35 38 42 40 40 38 30 28 23
73 68 66 62 55 47 44 43 42 37 32 29 27 27 28 27 25 21 18 18 14 9 15 17 17 21 24 25 22 21 24 26 28 30 34 35 36 43 48 50 48 41 34
49 50 53 54 52 54 49 39 36 35 24 26 27 26 27 30 28 22 15 15 20 22 19 18 17 19 22 26 27 23 23 22 23 30 34 37 39 40 45 45 47 49 50
47 47 50 51 50 47 49 53 41 33 30 26 27 22 29 26 24 21 23 24 22 21 14 19 23 26 27 30 30 29 29 32 34 34 36 39 43 45 45 43 41 41 44
32 38 42 41 41 39 43 43 46 41 32 29 29 28 24 27 28 29 24 21 22 17 17 24 26 27 28 28 30 31 32 33 34 37 41 44 44 46 53 52 47 44 43
35 35 35 36 37 38 35 34 36 41 43 42 35 29 29 31 32 26 21 18 21 21 24 25 25 27 28 28 28 29 28 27 31 37 42 47 48 52 56 60 57 52 49
36 39 38 37 36 35 36 37 39 40 39 37 40 38 39 32 30 28 19 17 22 25 26 24 24 26 27 27 29 28 28 27 31 35 41 48 52 54 58 61 61 56 54
34 32 32 32 33 34 37 40 42 38 38 40 40 38 35 29 27 24 17 18 20 22 24 24 23 24 26 27 28 28 27 24 28 33 40 46 51 54 57 61 65 67 63
26 27 25 26 27 29 34 38 41 42 41 41 39 33 26 21 22 19 17 18 18 18 21 22 21 22 24 26 27 28 29 28 29 33 38 44 49 53 55 58 62 65 66
24 25 23 22 24 25 27 30 36 35 34 32 31 30 25 21 17 15 15 15 17 18 19 20 20 22 24 26 28 29 30 31 31 32 36 42 46 50 53 56 61 66 69
29 26 25 23 22 24 25 29 31 29 30 27 26 25 22 17 16 13 11 13 15 17 18 19 20 22 24 27 29 30 32 35 37 37 37 40 43 48 51 54 58 62 67
29 27 27 22 19 27 26 30 33 31 30 24 21 18 17 14 13 11 10 11 13 15 16 16 17 19 22 24 27 30 32 34 35 36 36 37 40 43 46 49 54 58 62
30 32 28 24 27 32 35 36 35 32 26 20 16 15 16 13 10 8 5 8 10 12 13 14 16 17 20 23 25 28 30 32 33 33 34 35 37 40 44 47 51 54 59
35 35 32 33 35 34 30 31 29 26 21 16 13 13 12 11 8 5 3 4 8 9 10 12 14 17 19 21 23 26 27 29 31 33 33 35 38 41 44 46 48 53 57
Wind_Direction_850mb
220 221 222 225 227 222 223 222 225 216 203 196 105 244 237 221 217 217 230 259 245 250 254 265 283 293 295 297 300 304 305 308 308 307 313 319 323 323 318 317 316 312 309
222 220 218 218 216 215 217 218 203 201 178 189 191 214 207 203 206 226 223 223 235 255 271 284 291 291 294 298 300 305 315 317 315 318 324 332 337 333 334 332 333 332 324
212 213 212 211 198 207 206 203 186 189 189 190 193 189 188 194 205 206 218 234 253 272 284 288 289 290 293 298 305 311 322 334 333 335 333 339 344 340 346 356 359 6 351
201 202 198 206 201 194 195 187 175 172 172 170 171 179 184 190 193 210 236 258 283 288 288 289 291 302 307 316 321 331 343 345 342 342 346 353 351 351 349 350 6 7 359
189 190 197 195 183 182 177 177 169 166 162 162 163 169 175 182 205 233 268 297 295 273 272 292 310 328 339 346 341 354 7 10 23 13 2 354 350 348 352 349 343 342 349
187 190 188 176 177 177 176 178 175 166 163 168 168 172 180 203 242 276 290 301 224 313 329 290 323 337 348 349 351 3 2 12 13 5 356 345 341 338 336 337 337 335 335
185 184 174 175 170 171 173 171 166 165 166 176 176 177 186 198 203 118 112 72 46 63 185 253 319 340 346 356 14 6 6 5 352 345 341 331 329 329 327 326 325 322 319
177 172 169 169 166 164 166 163 162 164 169 176 174 175 176 148 132 138 106 56 105 163 187 320 339 352 8 23 10 358 357 344 332 330 323 317 314 314 312 312 315 315 318
169 164 164 165 162 161 161 161 161 166 170 167 163 155 148 143 141 123 102 108 170 181 311 342 359 5 27 10 357 344 339 332 325 321 316 311 309 307 306 312 317 328 344
161 159 158 159 159 160 159 159 156 164 162 157 152 147 142 141 142 144 141 177 213 246 327 352 37 23 28 4 337 337 342 343 340 341 339 341 342 341 343 347 348 345 344
153 150 150 151 152 155 155 155 156 155 151 148 146 140 138 140 145 135 158 190 224 195 89 80 55 40 21 6 5 3 4 360 3 16 25 23 16 15 11 6 356 348 345
140 141 143 145 147 150 152 149 146 148 149 144 140 134 135 139 130 132 131 130 113 106 93 73 36 27 19 12 12 10 9 19 34 32 28 24 18 14 14 8 360 359 353
137 138 140 142 142 145 146 143 143 145 146 137 132 134 137 134 136 130 119 121 112 97 84 47 39 28 14 14 13 22 32 39 39 29 27 25 16 13 9 11 10 11 28
126 130 132 134 136 138 139 140 139 143 139 130 133 137 137 136 136 129 126 116 108 100 78 65 43 28 26 30 29 34 38 40 31 23 22 18 14 17 16 12 10 6 7
119 130 137 134 137 136 132 135 137 128 124 132 131 131 137 138 134 135 130 118 108 93 73 61 55 52 49 47 46 44 44 41 31 24 19 14 13 12 8 3 6 4 2
139 137 136 137 139 145 148 145 141 139 135 134 129 131 137 136 131 129 125 111 96 81 75 72 63 57 52 47 44 42 39 37 33 28 22 18 14 11 6 5 7 1 0
138 141 138 139 140 154 159 157 152 148 143 137 133 135 139 132 135 132 118 105 92 74 79 71 61 53 49 43 38 37 38 37 32 29 27 26 23 20 18 14 8 6 5
137 137 136 145 153 163 161 158 159 152 146 137 133 135 136 139 135 119 100 93 84 81 74 67 58 51 45 41 38 38 39 38 33 30 29 28 28 25 22 21 18 12 7
121 123 132 142 151 158 159 157 152 147 143 140 136 135 134 133 126 112 98 88 81 75 68 60 54 49 45 39 37 33 32 35 33 31 30 28 27 26 25 21 21 21 16
113 121 122 122 131 141 146 143 140 142 142 136 137 140 134 125 114 111 103 87 78 71 63 55 48 45 43 40 38 38 37 40 35 32 29 28 26 25 24 23 22 22 20
132 125 121 119 124 127 135 138 135 138 139 137 136 137 132 119 117 111 95 83 77 69 64 53 45 43 43 41 40 39 36 35 32 30 27 24 22 22 22 22 23 24 23
146 142 139 141 135 133 132 140 145 143 145 144 137 137 132 128 123 114 97 83 70 60 59 53 44 41 41 39 38 35 34 33 32 27 25 22 19 19 19 20 21 23 23
156 148 143 140 145 150 151 158 163 151 152 145 142 137 133 137 130 119 98 76 60 51 46 45 40 35 33 33 32 31 30 28 26 23 21 19 17 16 16 17 20 21 22
169 163 155 151 162 157 157 166 162 154 152 151 146 143 142 144 133 120 98 73 54 43 42 44 39 36 31 29 27 27 28 27 24 20 17 16 16 16 16 17 19 19 20
175 173 166 166 161 157 147 146 149 150 149 151 154 160 155 152 145 139 111 66 40 31 35 38 37 33 29 27 24 24 24 22 22 21 18 15 16 16 16 15 16 18 20
184 182 178 176 173 171 163 155 153 159 161 159 156 161 160 157 163 160 116 35 29 25 28 33 30 27 26 24 23 21 18 17 17 19 17 14 13 14 14 14 15 16 18